Dewpoint
50 50 49 48 47 47 48 49 49 48 48 48 50 50 49 48 48 49 49 49 49 50 50 50 50 50 50 50 51 50 51 47 46 41 38 29 37 46 56 50 57 55 55 41 39 37 35 34 34 38 37 34 35 27 34 35 24 28 28 24 20 18 16 17 17 15 10 10 11 12 13 11 18 55 58 59 59 60 60 60 62 63 64 64 65 65 65 66
49 50 49 49 47 47 49 50 50 49 48 48 48 49 50 50 49 49 49 49 49 49 49 49 50 50 50 50 50 51 49 46 41 40 39 39 52 50 57 57 60 58 52 39 37 34 34 33 34 36 33 27 34 27 35 31 30 27 26 25 17 19 17 19 16 15 12 12 13 13 15 10 9 56 52 53 57 57 56 59 61 61 64 64 65 65 65 65
49 49 48 48 48 48 47 47 48 49 49 49 49 48 48 49 49 48 49 49 49 49 49 49 49 49 50 50 50 51 47 39 37 27 19 51 48 51 55 55 61 58 40 34 32 33 31 32 35 32 32 29 33 28 33 30 33 28 25 21 21 22 20 19 18 15 14 14 13 14 13 9 9 12 38 51 56 56 54 55 58 60 62 63 64 65 65 65
49 49 48 48 49 49 48 48 48 47 48 49 49 48 48 48 48 49 49 49 49 49 48 49 49 49 49 50 51 49 42 40 10 5 16 52 55 53 53 56 61 57 36 34 30 26 28 33 35 28 29 26 32 29 28 28 31 27 24 21 19 19 19 19 17 17 16 14 14 13 12 8 7 14 46 54 52 53 53 56 53 57 62 62 64 64 65 65
49 49 47 46 46 48 49 49 48 48 47 48 49 48 49 49 48 48 49 49 49 49 48 48 49 49 49 49 51 48 43 11 -9 5 14 59 63 60 55 58 62 46 34 33 28 30 30 34 32 30 22 23 31 29 27 29 29 24 26 25 23 14 14 16 16 16 15 15 12 13 12 8 9 43 51 54 36 33 48 51 57 58 63 63 63 64 65 65
50 49 49 47 47 46 47 47 47 48 49 49 48 48 48 49 49 48 48 49 49 48 48 48 48 48 49 51 49 48 16 -9 5 14 57 64 62 63 57 60 61 39 34 31 29 28 29 33 27 24 21 24 29 26 29 28 21 19 21 21 23 20 21 17 14 13 12 12 12 13 12 11 9 10 46 50 30 30 41 44 57 62 63 63 64 64 64 64
50 50 49 49 47 48 48 49 49 48 47 47 48 49 47 47 48 49 49 48 48 48 48 48 48 48 49 50 49 42 9 6 19 18 54 63 64 62 58 59 56 34 32 30 28 25 26 29 24 23 22 21 29 27 29 28 21 20 18 21 19 17 18 16 15 15 15 14 14 12 12 10 9 8 31 49 32 61 62 61 61 63 63 63 63 64 64 64
48 48 48 48 48 48 47 46 47 48 48 48 46 47 49 48 48 48 48 49 48 48 48 48 48 48 49 47 36 33 33 16 19 19 61 62 61 58 58 51 37 34 31 30 28 26 27 26 18 27 20 9 21 28 29 26 21 24 22 23 23 21 19 18 16 15 15 13 13 12 10 8 10 8 33 32 57 62 63 63 63 63 63 63 63 64 64 64
48 48 48 48 48 48 48 47 46 46 46 48 48 48 49 49 48 48 48 48 47 48 47 48 47 47 51 45 36 14 9 24 25 40 57 55 58 57 52 45 36 34 32 31 29 28 24 23 19 21 9 16 27 24 27 26 24 23 25 20 18 20 19 18 16 14 11 10 10 9 8 8 9 10 10 27 62 62 63 62 62 62 62 63 63 64 64 64
48 49 48 48 48 48 48 48 47 48 48 47 46 47 47 47 48 47 47 48 47 47 48 47 47 47 47 44 33 6 7 20 31 54 56 55 54 51 47 44 35 33 31 30 28 28 20 23 15 24 24 25 28 25 25 25 19 23 23 22 22 22 18 14 10 11 10 8 10 7 8 8 8 8 5 56 62 62 62 61 62 62 62 63 63 64 64 64
48 48 48 48 47 48 49 50 48 46 45 46 47 48 48 47 48 47 47 47 47 47 47 47 47 46 45 44 20 3 7 45 50 52 53 51 48 46 41 40 32 30 30 27 27 28 25 25 29 28 28 20 26 25 23 24 22 20 22 21 21 20 12 11 9 9 8 7 10 8 7 9 9 6 6 54 63 62 61 61 61 62 62 62 63 64 64 64
48 48 47 47 48 49 49 49 48 47 47 47 46 47 47 47 48 47 47 48 47 47 46 47 47 46 46 43 34 12 17 46 41 43 49 47 45 42 41 38 33 32 27 26 26 28 27 27 30 28 14 28 21 23 23 22 19 16 14 15 14 10 11 11 10 8 10 5 9 9 7 6 8 6 12 47 63 61 61 61 61 62 62 62 63 63 64 64
47 46 47 48 48 48 48 48 48 46 46 46 46 47 46 47 47 46 47 47 47 46 47 46 46 44 44 34 35 36 28 29 29 27 25 41 44 45 41 38 36 34 32 29 26 27 31 32 30 25 28 24 18 15 16 20 13 11 10 11 15 12 11 9 7 8 6 5 9 8 4 4 5 8 15 57 62 61 60 60 61 61 62 62 62 62 63 64
46 46 47 48 49 49 48 47 47 47 47 47 47 47 46 46 46 47 46 46 47 47 46 46 43 47 43 31 28 28 30 32 30 24 22 25 28 38 41 40 38 34 29 29 29 27 27 36 33 31 23 21 16 18 13 12 12 14 9 9 14 12 11 5 7 8 4 9 9 7 8 4 7 8 12 58 61 60 60 60 60 61 62 62 62 62 63 64
46 46 47 47 48 48 48 47 46 46 46 45 47 47 46 46 46 46 47 47 46 46 47 49 47 44 40 37 37 34 48 39 30 24 21 23 24 33 42 39 38 35 30 28 28 29 27 33 32 31 29 25 24 23 17 12 14 12 10 11 9 10 9 7 19 8 4 6 9 6 11 5 6 8 8 27 60 60 59 60 60 61 61 62 62 62 62 63
46 47 48 48 48 47 47 47 46 46 46 46 46 46 46 46 46 47 47 46 46 46 45 43 43 43 36 21 16 38 34 32 29 33 27 22 29 22 41 39 37 35 32 30 29 29 28 30 30 30 25 18 19 19 12 11 10 13 11 18 9 7 7 4 6 7 9 6 6 6 3 5 4 8 18 30 59 60 60 60 61 61 62 62 62 62 62 62
45 46 48 48 48 47 45 45 45 46 46 45 45 46 47 47 47 47 47 47 46 46 47 41 41 43 31 21 30 22 19 29 36 32 29 28 30 35 40 39 37 34 32 28 29 26 27 25 26 24 19 21 16 16 15 15 15 11 14 12 15 7 7 3 8 8 9 5 4 6 5 7 10 13 29 49 59 60 58 59 60 60 60 61 62 62 61 62
44 46 48 48 48 47 46 46 46 46 46 46 46 45 44 46 49 48 47 47 47 46 46 47 42 43 34 36 23 19 23 29 32 34 30 33 33 41 38 33 34 35 31 26 26 24 25 23 24 26 24 22 16 18 17 14 16 14 16 17 12 12 12 5 6 8 11 11 5 9 8 8 8 11 20 45 55 59 58 58 59 59 59 60 60 61 60 61
44 46 47 48 47 46 45 43 44 45 46 47 47 46 46 48 48 46 44 45 37 26 23 36 38 5 1 17 23 25 25 26 31 33 33 33 36 37 30 32 34 30 26 23 23 23 23 24 27 25 26 22 17 17 18 14 14 10 13 12 11 10 8 7 9 11 12 15 10 7 6 9 10 16 26 36 35 48 56 57 58 59 60 60 59 60 61 61
47 47 48 48 46 45 45 44 44 45 46 46 42 42 39 45 44 41 43 44 38 20 15 21 37 31 22 19 27 27 27 28 26 29 34 36 35 31 29 31 29 27 24 21 22 23 23 23 22 24 24 20 20 16 18 17 14 13 13 11 9 8 8 10 11 11 12 13 15 14 14 15 31 41 44 43 42 41 48 55 57 58 59 60 60 61 61 62
47 47 48 48 46 44 44 44 44 46 48 45 42 39 20 36 34 35 40 40 41 40 38 34 36 31 18 28 29 25 22 20 29 26 32 40 32 28 28 28 27 27 23 21 22 30 23 25 25 24 20 17 21 25 27 18 17 11 10 9 9 8 6 9 10 13 18 23 16 20 29 34 39 43 48 49 48 49 48 50 55 58 58 59 60 61 61 62
47 47 48 47 46 43 43 45 44 45 46 45 41 37 36 35 34 36 36 30 34 37 37 34 34 33 34 33 31 27 26 24 21 25 26 33 31 24 29 26 25 23 26 24 25 24 23 23 26 23 24 28 27 27 24 22 19 17 11 11 9 9 11 11 14 17 16 15 16 23 29 32 35 39 48 49 50 51 51 51 53 57 58 58 59 60 61 62
48 48 47 47 44 44 44 44 45 46 44 42 39 37 36 37 37 40 39 35 33 34 34 35 32 31 30 30 28 26 20 18 16 21 30 30 30 24 29 25 25 23 24 23 19 25 23 23 24 22 26 27 25 24 26 26 28 19 15 13 9 11 8 7 19 20 19 20 19 32 33 36 38 39 46 49 50 51 52 52 52 52 55 57 58 59 60 60
46 47 47 47 44 43 44 46 46 44 43 41 40 38 39 40 40 40 35 33 29 29 32 33 33 32 31 29 29 26 22 21 21 20 28 30 24 28 29 26 25 23 21 22 21 19 20 23 26 25 23 21 23 25 23 20 15 23 18 11 8 10 9 8 11 20 25 20 26 30 32 33 37 42 44 47 49 50 51 52 53 54 54 55 56 58 59 60
45 46 47 47 45 44 45 45 42 42 42 40 39 40 41 41 42 41 38 33 31 30 32 29 33 31 29 31 29 26 26 26 26 26 28 29 26 28 28 26 25 22 22 23 23 21 21 22 23 21 19 20 21 19 22 19 15 17 24 15 11 11 10 10 18 12 17 16 18 15 16 26 35 42 44 46 48 48 49 51 51 53 54 55 55 57 58 58
44 46 47 47 45 44 45 41 42 41 39 37 37 40 41 41 41 42 36 28 23 23 27 23 31 26 30 29 28 28 27 23 27 27 26 29 30 27 25 25 26 22 23 23 21 24 20 24 22 19 18 18 17 15 17 19 16 17 14 16 13 10 13 11 12 12 16 15 16 22 14 24 30 39 42 45 46 47 48 49 50 52 53 54 55 56 57 58
46 47 47 46 44 45 41 37 40 40 36 35 40 42 41 40 41 41 30 21 17 24 20 22 24 18 26 27 27 27 12 13 28 28 27 32 27 23 24 23 24 23 23 27 25 20 22 21 21 21 20 18 17 16 19 16 14 12 17 15 12 11 11 12 9 8 14 25 24 20 19 22 26 36 42 45 46 46 47 48 50 52 53 55 56 56 57 58
47 46 46 45 44 44 42 42 40 37 36 39 42 41 41 41 42 42 33 10 6 21 18 25 23 26 25 29 28 17 22 25 21 26 26 28 25 24 24 21 22 22 23 23 18 25 28 22 23 21 21 18 16 17 20 16 12 12 18 14 11 9 10 12 9 15 21 20 13 15 22 27 31 38 42 45 44 46 47 48 49 50 52 54 55 56 57 58
46 46 45 43 42 43 44 42 39 38 39 41 41 41 41 42 42 35 27 12 34 19 25 22 26 22 28 29 26 22 19 23 21 23 22 25 23 24 22 22 22 22 21 21 20 22 21 22 21 19 18 18 18 18 18 14 12 12 19 18 20 20 19 13 12 13 20 17 14 16 23 22 31 35 39 43 44 45 48 49 50 52 53 53 55 55 56 57
46 46 44 43 42 42 42 43 40 40 41 41 41 41 42 43 38 21 19 12 26 18 16 18 19 18 28 26 24 24 21 16 17 19 21 24 22 18 16 23 21 21 20 20 20 20 19 34 25 20 19 19 20 19 17 13 12 18 16 14 16 17 19 23 23 19 18 12 14 16 21 21 20 34 40 43 46 48 47 49 51 53 53 54 55 55 55 55
46 45 44 43 39 39 40 38 39 40 41 42 41 42 42 40 28 16 14 20 31 27 16 15 15 27 26 25 22 23 23 16 17 19 18 18 18 17 18 19 19 20 23 21 20 22 19 22 20 20 27 20 19 17 16 15 17 16 14 15 13 16 20 20 20 22 14 11 16 21 19 15 15 34 42 47 49 49 49 49 50 52 53 53 53 53 54 54
46 45 44 42 40 41 40 39 42 42 42 42 41 41 38 26 23 20 17 28 19 28 23 12 19 25 25 24 21 21 20 14 17 17 16 18 19 17 19 21 22 20 19 20 19 20 19 17 17 16 34 20 18 16 15 14 16 15 16 13 9 12 17 13 15 13 10 16 20 20 21 21 35 40 46 48 48 50 51 52 52 53 53 52 52 53 53 53
45 45 44 42 42 41 40 41 42 42 43 42 41 38 30 24 15 19 20 22 26 35 27 33 17 23 24 20 18 21 18 14 14 16 15 15 16 16 18 17 19 24 18 24 20 20 18 18 17 16 18 27 18 16 15 13 13 14 12 15 8 9 11 11 10 16 13 16 14 22 24 27 35 42 47 48 49 52 52 53 52 52 52 52 52 52 52 52
45 44 42 43 42 41 42 44 43 42 42 41 40 32 27 20 17 30 16 19 24 38 33 28 27 22 22 16 16 19 16 13 14 14 14 16 16 19 16 17 17 17 28 25 17 17 14 14 15 14 14 20 18 17 16 17 15 13 15 12 15 15 11 12 9 11 10 13 19 29 20 31 34 40 49 49 50 51 53 52 52 51 51 51 50 50 50 50
46 46 45 44 44 44 44 43 44 44 42 40 33 27 22 19 24 25 28 35 33 36 33 29 26 20 21 16 16 18 16 15 14 13 13 14 17 19 18 15 18 20 20 18 21 20 13 16 19 15 16 17 16 16 17 16 14 15 15 14 16 17 25 11 17 18 16 16 17 32 30 39 40 46 49 49 50 52 51 51 50 49 49 48 48 48 48 48
45 43 44 42 42 42 44 44 44 43 40 38 28 23 21 22 18 28 34 37 32 30 28 26 24 20 19 15 15 16 17 14 14 14 15 13 15 16 17 16 14 18 18 20 24 15 12 15 18 16 16 15 15 17 16 16 17 18 13 14 15 20 19 20 19 23 25 20 22 30 37 41 45 48 48 49 50 51 50 50 49 48 47 47 47 47 47 47
42 42 40 42 42 43 44 44 43 42 40 36 27 24 26 22 27 31 38 32 34 30 27 22 19 16 17 13 15 15 16 15 16 15 16 15 16 14 15 17 16 17 17 23 22 24 13 20 22 14 13 15 17 16 16 16 19 16 15 15 19 20 23 22 12 16 14 10 24 33 35 37 36 36 46 48 48 50 49 48 48 48 47 46 46 46 46 46
42 41 42 42 43 44 44 44 43 40 40 34 27 28 28 18 29 27 31 27 30 26 25 23 20 16 15 16 13 14 16 13 16 15 15 15 16 21 15 16 18 15 17 21 19 23 20 15 14 14 14 16 18 15 14 15 15 14 14 17 14 16 13 19 20 11 11 16 24 31 34 35 37 39 44 45 46 48 48 47 46 45 45 45 45 45 45 45
43 42 39 44 44 44 44 44 41 39 39 30 28 26 27 26 29 22 22 22 23 24 25 24 23 17 16 16 18 13 15 14 14 16 13 16 14 23 16 17 18 17 16 17 20 25 30 21 16 19 15 17 17 15 17 15 14 16 16 14 17 21 23 12 16 20 16 13 25 29 33 30 37 38 43 45 47 48 46 45 44 44 43 44 44 44 44 44
41 39 40 45 45 45 44 43 41 40 33 27 28 26 27 25 23 24 21 20 21 32 27 23 18 18 18 19 15 15 14 16 12 17 15 19 15 22 22 28 17 17 17 18 17 26 21 30 15 16 16 16 14 17 16 15 16 15 16 17 17 26 20 19 22 13 12 20 22 29 27 30 37 40 43 44 48 47 46 44 44 43 43 43 43 44 44 44
40 38 41 45 44 44 43 42 37 35 32 32 32 29 24 20 22 22 21 21 24 27 24 23 21 19 22 17 14 14 17 16 15 19 20 18 22 18 22 25 21 16 15 16 17 30 25 21 19 20 14 14 18 29 28 15 15 15 17 16 16 17 14 12 13 15 18 21 22 25 25 34 36 44 46 45 49 47 45 44 43 43 43 43 43 43 43 44
39 37 40 44 44 43 41 34 35 37 34 30 25 25 18 27 25 19 14 19 24 30 25 23 22 20 22 19 18 16 18 20 26 27 30 17 32 30 34 40 36 15 17 21 19 29 31 29 25 19 23 26 28 28 32 30 25 22 15 15 17 27 22 16 11 16 17 20 27 29 22 25 44 47 48 49 48 45 44 44 43 42 43 42 43 43 43 43
39 38 45 44 44 43 37 29 33 34 33 32 28 24 26 23 23 22 18 21 23 26 24 19 19 21 23 18 19 21 28 30 29 25 34 35 37 37 39 41 40 18 20 29 19 29 49 29 19 20 24 26 28 27 33 33 27 21 27 27 17 19 19 19 19 24 19 26 21 18 19 28 43 47 46 46 45 44 44 43 42 42 43 42 42 42 42 42
40 38 42 43 44 43 33 27 26 30 32 31 27 23 22 19 18 14 15 19 25 27 24 25 24 21 26 26 26 26 29 29 31 33 34 35 36 37 37 43 26 22 23 27 23 36 20 23 21 21 23 24 27 26 26 28 37 37 34 37 29 21 23 30 28 30 21 26 24 15 13 30 44 45 44 44 43 42 42 42 42 41 42 42 41 41 41 41
38 41 44 43 44 42 35 32 28 28 32 29 35 24 24 34 28 16 12 14 26 25 25 26 22 26 27 26 31 31 32 32 34 33 35 37 37 37 37 44 41 40 48 38 41 26 27 28 26 14 17 17 19 19 20 22 31 38 36 33 33 22 28 28 17 18 15 25 22 18 23 37 43 44 43 42 41 40 40 41 41 42 41 41 40 40 40 40
37 32 39 40 41 40 40 41 39 36 34 35 28 32 33 29 35 33 25 24 26 26 25 26 26 25 28 31 33 31 32 34 32 34 34 35 36 35 36 41 48 45 47 46 41 39 35 36 32 29 21 20 22 27 36 35 35 32 33 35 35 34 26 33 28 17 13 27 25 27 34 39 40 41 42 41 41 40 40 40 39 39 40 40 40 40 40 40
40 35 33 32 37 37 37 38 37 38 34 35 26 34 34 35 34 32 29 29 23 25 27 30 29 30 28 33 33 32 31 33 33 35 35 36 36 35 36 39 44 43 44 43 44 37 37 34 36 36 36 35 33 36 38 36 36 36 34 35 35 36 37 30 21 17 31 25 18 35 40 40 40 42 41 41 41 40 40 39 39 39 40 40 40 40 40 39
34 37 40 39 31 30 31 30 34 37 39 38 37 37 36 34 33 29 29 23 27 30 29 28 29 27 26 30 34 32 31 32 34 32 32 34 33 35 35 34 36 42 44 39 40 40 36 32 36 37 36 36 36 36 37 36 36 36 36 37 37 37 35 30 34 34 31 22 14 36 41 40 40 42 41 40 40 39 39 39 40 40 39 39 39 39 38 38
41 39 41 42 36 37 33 35 37 36 37 38 38 37 35 34 34 33 28 30 28 30 29 28 29 30 27 29 33 31 32 30 30 33 35 35 36 37 34 34 34 36 39 41 40 42 38 35 36 37 36 36 35 36 36 36 36 36 36 36 37 38 38 37 36 36 38 38 36 40 40 40 40 40 39 39 39 39 38 39 38 38 38 38 38 38 37 37
38 36 36 40 41 39 37 38 39 38 36 39 34 36 37 35 33 32 30 29 28 30 29 29 26 26 27 27 31 32 29 35 35 31 34 37 33 37 36 36 33 35 37 40 41 39 37 33 37 34 35 34 36 36 35 36 36 35 35 36 37 38 37 37 38 38 39 38 39 39 38 35 37 39 38 38 37 37 37 37 37 37 37 37 37 37 37 37
42 44 44 39 37 38 39 39 39 36 34 36 36 37 35 35 31 34 29 27 27 29 32 29 29 29 28 27 31 29 29 32 33 35 37 40 33 34 38 34 34 37 38 40 41 41 39 35 37 36 32 33 35 35 35 36 36 35 35 36 36 37 36 37 36 37 38 38 38 37 36 34 36 38 37 38 38 37 36 36 36 36 37 37 37 37 37 37
44 47 46 42 36 39 39 38 36 35 31 35 37 36 35 32 31 29 29 29 30 31 33 32 33 30 31 29 30 30 31 34 34 38 39 38 38 38 38 38 36 37 37 38 39 39 39 37 32 32 31 32 35 34 35 34 33 30 32 34 37 37 37 37 37 38 39 39 36 34 36 36 37 37 36 36 36 36 36 37 36 36 37 36 36 36 36 37